This is the latest recevied weather packets stored in our database for station/object WA6OOO. If no packets are shown the sender has not sent any weather packets the latest 10 day(s).
| Time | Temp. | Humidity | Pressure | Rain* | Wind** | Luminosity | Snow |
|---|---|---|---|---|---|---|---|
| 1777242838 | 17.78° C | 56% | 1016.8 hPa | 0 mm | - | 646 W/m² | - |
| 1777242535 | 17.78° C | 55% | 1016.6 hPa | 0 mm | - | 655 W/m² | - |
| 1777242230 | 17.78° C | 55% | 1016.8 hPa | 0 mm | - | 703 W/m² | - |
| 1777241929 | 17.78° C | 54% | 1016.9 hPa | 0 mm | - | 349 W/m² | - |
| 1777241625 | 17.78° C | 54% | 1017.1 hPa | 0 mm | - | 429 W/m² | - |
| 1777241323 | 18.33° C | 53% | 1017.1 hPa | 0 mm | - | 321 W/m² | - |
| 1777241020 | 18.33° C | 54% | 1017.1 hPa | 0 mm | - | 680 W/m² | - |
| 1777240718 | 18.33° C | 53% | 1017.1 hPa | 0 mm | - | 699 W/m² | - |
| 1777240416 | 17.78° C | 52% | 1017 hPa | 0 mm | - | 713 W/m² | - |
| 1777240113 | 17.78° C | 53% | 1017.3 hPa | 0 mm | - | 712 W/m² | - |
| 1777239811 | 18.33° C | 54% | 1017.1 hPa | 0 mm | - | 719 W/m² | - |
| 1777239506 | 18.33° C | 53% | 1017 hPa | 0 mm | - | 719 W/m² | - |
| 1777239204 | 18.33° C | 52% | 1016.9 hPa | 0 mm | - | 728 W/m² | - |
| 1777238901 | 17.78° C | 51% | 1017.3 hPa | 0 mm | - | 739 W/m² | - |
| 1777238598 | 18.33° C | 51% | 1017 hPa | 0 mm | - | 764 W/m² | - |
| 1777238295 | 17.78° C | 52% | 1017.1 hPa | 0 mm | - | 800 W/m² | - |
| 1777237992 | 17.78° C | 53% | 1017 hPa | 0 mm | - | 326 W/m² | - |
| 1777237688 | 17.78° C | 54% | 1016.9 hPa | 0 mm | - | 431 W/m² | - |
| 1777237385 | 17.78° C | 53% | 1016.9 hPa | 0 mm | - | 883 W/m² | - |
| 1777237083 | 17.78° C | 53% | 1017 hPa | 0 mm | - | 836 W/m² | - |
| 1777236780 | 17.78° C | 53% | 1017.2 hPa | 0 mm | - | 828 W/m² | - |
| 1777236479 | 17.78° C | 53% | 1017.1 hPa | 0 mm | - | 524 W/m² | - |
| 1777236176 | 17.22° C | 59% | 1017.3 hPa | 0 mm | - | 799 W/m² | - |
| 1777235871 | 17.22° C | 59% | 1017 hPa | 0 mm | - | 787 W/m² | - |
| 1777235569 | 17.78° C | 58% | 1016.9 hPa | 0 mm | - | 789 W/m² | - |
* Rain latest hour (hover to see other rain measurements)
** Current wind speed in m/s (hover to see current wind gust speed)